| time (UTC) | temp F | wind direction | speed MPH | gust MPH | rain 1hr in | rain 24hr in | rain mn in | humidity % | barometer mb |
| 20260906012913 | 73 | 50 | 0.0 | 0.0 | 0.00 | 0.00 | 0.00 | 86 | 1007.7 |
| 20260906012408 | 73 | 47 | 0.0 | 0.0 | 0.00 | 0.00 | 0.00 | 86 | 1007.7 |
| 20260906011907 | 73 | 47 | 0.0 | 0.0 | 0.00 | 0.00 | 0.00 | 86 | 1007.7 |
| 20260906011402 | 73 | 40 | 0.0 | 0.0 | 0.00 | 0.00 | 0.00 | 86 | 1007.8 |
| 20260906010858 | 73 | 54 | 0.0 | 0.0 | 0.00 | 0.00 | 0.00 | 86 | 1007.8 |
| 20260906010353 | 73 | 19 | 0.0 | 0.0 | 0.00 | 0.00 | 0.00 | 85 | 1007.8 |
| 20260906005849 | 73 | 38 | 0.0 | 0.0 | 0.00 | 0.00 | 0.00 | 85 | 1007.9 |
| 20260906005348 | 73 | 46 | 0.0 | 0.0 | 0.00 | 0.00 | 0.00 | 85 | 1007.6 |
| 20260906004848 | 73 | 60 | 0.0 | 0.0 | 0.00 | 0.00 | 0.00 | 85 | 1007.7 |
| 20260906004347 | 74 | 38 | 0.0 | 0.0 | 0.00 | 0.00 | 0.00 | 85 | 1007.7 |
| 20260906003842 | 73 | 51 | 0.0 | 0.0 | 0.00 | 0.00 | 0.00 | 85 | 1007.9 |
| 20260906003337 | 74 | 24 | 0.0 | 0.0 | 0.00 | 0.00 | 0.00 | 85 | 1007.8 |
| 20260906002833 | 74 | 99 | 1.0 | 1.0 | 0.00 | 0.00 | 0.00 | 85 | 1007.7 |
| 20260906002332 | 74 | 43 | 0.0 | 1.0 | 0.00 | 0.00 | 0.00 | 85 | 1007.4 |
| 20260906001828 | 74 | 54 | 0.0 | 0.0 | 0.00 | 0.00 | 0.00 | 85 | 1007.5 |
| 20260906001323 | 74 | 68 | 0.0 | 2.0 | 0.00 | 0.00 | 0.00 | 85 | 1007.7 |
| 20260906000818 | 74 | 65 | 0.0 | 1.0 | 0.00 | 0.00 | 0.00 | 84 | 1007.8 |
| 20260906000313 | 74 | 113 | 2.0 | 2.0 | 0.00 | 0.00 | 0.00 | 84 | 1007.7 |
| 20260905235808 | 74 | 52 | 0.0 | 1.0 | 0.00 | 0.00 | 0.00 | 84 | 1007.9 |
| 20260905235308 | 74 | 70 | 1.0 | 1.0 | 0.00 | 0.00 | 0.00 | 84 | 1007.7 |
| 20260905234804 | 74 | 43 | 0.0 | 1.0 | 0.00 | 0.00 | 0.00 | 84 | 1007.6 |
| 20260905234259 | 74 | 36 | 0.0 | 0.0 | 0.00 | 0.00 | 0.00 | 84 | 1007.7 |
| 20260905233754 | 74 | 52 | 0.0 | 0.0 | 0.00 | 0.00 | 0.00 | 84 | 1007.6 |
| 20260905233254 | 75 | 50 | 0.0 | 0.0 | 0.00 | 0.00 | 0.00 | 84 | 1007.8 |
| 20260905232753 | 75 | 92 | 2.0 | 2.0 | 0.00 | 0.00 | 0.00 | 84 | 1007.7 |
| 20260905232249 | 75 | 110 | 0.0 | 1.0 | 0.00 | 0.00 | 0.00 | 84 | 1007.7 |
| 20260905231745 | 75 | 52 | 0.0 | 1.0 | 0.00 | 0.00 | 0.00 | 84 | 1007.8 |
| 20260905231240 | 75 | 68 | 0.0 | 1.0 | 0.00 | 0.00 | 0.00 | 84 | 1007.9 |
| 20260905230736 | 75 | 37 | 0.0 | 1.0 | 0.00 | 0.00 | 0.00 | 84 | 1008.1 |
| 20260905230234 | 75 | 103 | 1.0 | 1.0 | 0.00 | 0.00 | 0.00 | 84 | 1007.8 |
| 20260905225733 | 75 | 89 | 1.0 | 2.0 | 0.00 | 0.00 | 0.00 | 83 | 1008.0 |
| 20260905225228 | 75 | 61 | 0.0 | 2.0 | 0.00 | 0.00 | 0.00 | 83 | 1007.8 |
| 20260905224727 | 75 | 92 | 0.0 | 0.0 | 0.00 | 0.00 | 0.00 | 83 | 1008.0 |
| 20260905224223 | 75 | 40 | 0.0 | 0.0 | 0.00 | 0.00 | 0.00 | 83 | 1008.1 |
| 20260905223720 | 75 | 59 | 0.0 | 0.0 | 0.00 | 0.00 | 0.00 | 83 | 1008.0 |
| 20260905223216 | 75 | 47 | 0.0 | 0.0 | 0.00 | 0.00 | 0.00 | 83 | 1008.0 |
| 20260905222711 | 75 | 48 | 0.0 | 0.0 | 0.00 | 0.00 | 0.00 | 83 | 1008.0 |
| 20260905222210 | 75 | 52 | 0.0 | 0.0 | 0.00 | 0.00 | 0.00 | 83 | 1008.2 |
| 20260905221706 | 75 | 72 | 0.0 | 0.0 | 0.00 | 0.00 | 0.00 | 83 | 1008.0 |
| 20260905221203 | 76 | 45 | 0.0 | 0.0 | 0.00 | 0.00 | 0.00 | 82 | 1008.2 |
| 20260905220659 | 76 | 89 | 1.0 | 1.0 | 0.00 | 0.00 | 0.00 | 82 | 1008.3 |
| 20260905220155 | 76 | 78 | 0.0 | 1.0 | 0.00 | 0.00 | 0.00 | 82 | 1008.3 |
| 20260905215648 | 76 | 64 | 0.0 | 1.0 | 0.00 | 0.00 | 0.00 | 82 | 1008.4 |
| 20260905215144 | 76 | 63 | 0.0 | 1.0 | 0.00 | 0.00 | 0.00 | 82 | 1008.3 |
| 20260905214641 | 76 | 102 | 1.0 | 1.0 | 0.00 | 0.00 | 0.00 | 82 | 1008.3 |
| 20260905214141 | 76 | 35 | 0.0 | 0.0 | 0.00 | 0.00 | 0.00 | 82 | 1008.5 |
| 20260905213636 | 76 | 24 | 0.0 | 0.0 | 0.00 | 0.00 | 0.00 | 82 | 1008.4 |
| 20260905213131 | 76 | 55 | 0.0 | 2.0 | 0.00 | 0.00 | 0.00 | 82 | 1008.4 |
| 20260905212626 | 76 | 105 | 0.0 | 2.0 | 0.00 | 0.00 | 0.00 | 82 | 1008.5 |
| 20260905212126 | 76 | 63 | 0.0 | 2.0 | 0.00 | 0.00 | 0.00 | 82 | 1008.5 |
| 20260905211621 | 76 | 68 | 1.0 | 2.0 | 0.00 | 0.00 | 0.00 | 82 | 1008.4 |
| 20260905211116 | 77 | 52 | 0.0 | 1.0 | 0.00 | 0.00 | 0.00 | 81 | 1008.6 |
| 20260905210613 | 76 | 36 | 0.0 | 1.0 | 0.00 | 0.00 | 0.00 | 81 | 1008.7 |
| 20260905210108 | 77 | 45 | 0.0 | 1.0 | 0.00 | 0.00 | 0.00 | 81 | 1008.6 |
| 20260905205607 | 77 | 75 | 1.0 | 2.0 | 0.00 | 0.00 | 0.00 | 81 | 1008.6 |
| 20260905205106 | 77 | 43 | 0.0 | 0.0 | 0.00 | 0.00 | 0.00 | 81 | 1008.5 |
| 20260905204601 | 77 | 55 | 0.0 | 1.0 | 0.00 | 0.00 | 0.00 | 81 | 1008.7 |
| 20260905204056 | 77 | 49 | 0.0 | 1.0 | 0.00 | 0.00 | 0.00 | 80 | 1008.5 |
| 20260905203555 | 77 | 96 | 2.0 | 2.0 | 0.00 | 0.00 | 0.00 | 81 | 1008.6 |
| 20260905203051 | 77 | 40 | 0.0 | 1.0 | 0.00 | 0.00 | 0.00 | 80 | 1008.6 |
| 20260905202546 | 77 | 42 | 1.0 | 1.0 | 0.00 | 0.00 | 0.00 | 80 | 1008.6 |
| 20260905202042 | 77 | 35 | 0.0 | 1.0 | 0.00 | 0.00 | 0.00 | 80 | 1008.7 |
| 20260905201537 | 78 | 38 | 0.0 | 1.0 | 0.00 | 0.00 | 0.00 | 80 | 1008.6 |
| 20260905201036 | 78 | 123 | 0.0 | 1.0 | 0.00 | 0.00 | 0.00 | 80 | 1008.6 |
| 20260905200532 | 78 | 27 | 0.0 | 1.0 | 0.00 | 0.00 | 0.00 | 80 | 1008.8 |
| 20260905200032 | 78 | 211 | 1.0 | 1.0 | 0.00 | 0.00 | 0.00 | 80 | 1008.7 |
| 20260905195526 | 78 | 45 | 0.0 | 0.0 | 0.00 | 0.00 | 0.00 | 79 | 1008.7 |
| 20260905195021 | 78 | 44 | 0.0 | 0.0 | 0.00 | 0.00 | 0.00 | 79 | 1008.5 |
| 20260905194515 | 78 | 38 | 0.0 | 0.0 | 0.00 | 0.00 | 0.00 | 79 | 1008.7 |
| 20260905194010 | 79 | 149 | 0.0 | 1.0 | 0.00 | 0.00 | 0.00 | 79 | 1008.7 |
| 20260905193510 | 78 | 99 | 0.0 | 1.0 | 0.00 | 0.00 | 0.00 | 79 | 1008.6 |
| 20260905193005 | 78 | 59 | 0.0 | 0.0 | 0.00 | 0.00 | 0.00 | 79 | 1008.8 |
| 20260905192500 | 79 | 58 | 0.0 | 0.0 | 0.00 | 0.00 | 0.00 | 79 | 1008.8 |
| 20260905191956 | 79 | 73 | 0.0 | 1.0 | 0.00 | 0.00 | 0.00 | 79 | 1008.6 |
| 20260905191450 | 79 | 11 | 0.0 | 1.0 | 0.00 | 0.00 | 0.00 | 79 | 1008.9 |
| 20260905190949 | 79 | 6 | 0.0 | 1.0 | 0.00 | 0.00 | 0.00 | 78 | 1008.8 |
| 20260905190447 | 79 | 104 | 1.0 | 1.0 | 0.00 | 0.00 | 0.00 | 78 | 1008.6 |
| 20260905185946 | 79 | 131 | 1.0 | 1.0 | 0.00 | 0.00 | 0.00 | 78 | 1008.7 |
| 20260905185441 | 79 | 122 | 1.0 | 1.0 | 0.00 | 0.00 | 0.00 | 78 | 1008.9 |
| 20260905184939 | 79 | 78 | 0.0 | 0.0 | 0.00 | 0.00 | 0.00 | 78 | 1008.9 |
| 20260905184434 | 79 | 76 | 0.0 | 1.0 | 0.00 | 0.00 | 0.00 | 79 | 1008.7 |
| 20260905183933 | 79 | 110 | 0.0 | 1.0 | 0.00 | 0.00 | 0.00 | 78 | 1009.0 |
| 20260905183422 | 79 | 49 | 0.0 | 0.0 | 0.00 | 0.00 | 0.00 | 78 | 1009.0 |
| 20260905182918 | 79 | 37 | 0.0 | 0.0 | 0.00 | 0.00 | 0.00 | 79 | 1008.9 |
| 20260905182416 | 79 | 43 | 0.0 | 0.0 | 0.00 | 0.00 | 0.00 | 78 | 1008.8 |
| 20260905181912 | 79 | 43 | 0.0 | 0.0 | 0.00 | 0.00 | 0.00 | 78 | 1008.7 |
| 20260905181412 | 79 | 43 | 0.0 | 0.0 | 0.00 | 0.00 | 0.00 | 78 | 1008.9 |
| 20260905180912 | 79 | 44 | 0.0 | 0.0 | 0.00 | 0.00 | 0.00 | 78 | 1008.8 |
| 20260905180406 | 80 | 29 | 0.0 | 0.0 | 0.00 | 0.00 | 0.00 | 78 | 1008.9 |
| 20260905175901 | 80 | 30 | 0.0 | 0.0 | 0.00 | 0.00 | 0.00 | 78 | 1008.8 |
| 20260905175400 | 80 | 26 | 0.0 | 0.0 | 0.00 | 0.00 | 0.00 | 77 | 1009.0 |
| 20260905174855 | 80 | 23 | 0.0 | 1.0 | 0.00 | 0.00 | 0.00 | 77 | 1008.9 |
| 20260905174351 | 80 | 4 | 1.0 | 1.0 | 0.00 | 0.00 | 0.00 | 77 | 1009.0 |
| 20260905173847 | 80 | 8 | 1.0 | 1.0 | 0.00 | 0.00 | 0.00 | 77 | 1008.8 |
| 20260905173343 | 80 | 346 | 1.0 | 1.0 | 0.00 | 0.00 | 0.00 | 76 | 1008.7 |
| 20260905172838 | 80 | 305 | 1.0 | 2.0 | 0.00 | 0.00 | 0.00 | 76 | 1008.8 |
| 20260905172336 | 80 | 300 | 2.0 | 3.0 | 0.00 | 0.00 | 0.00 | 76 | 1008.7 |
| 20260905171832 | 80 | 6 | 1.0 | 3.0 | 0.00 | 0.00 | 0.00 | 76 | 1008.6 |
| 20260905171329 | 80 | 317 | 2.0 | 2.0 | 0.00 | 0.00 | 0.00 | 76 | 1008.6 |
| 20260905170825 | 80 | 277 | 4.0 | 5.0 | 0.00 | 0.00 | 0.00 | 76 | 1008.5 |
| 20260905170320 | 80 | 322 | 2.0 | 3.0 | 0.00 | 0.00 | 0.00 | 76 | 1008.4 |
| 20260905165819 | 80 | 326 | 4.0 | 5.0 | 0.00 | 0.00 | 0.00 | 76 | 1008.5 |
| 20260905165310 | 81 | 335 | 2.0 | 3.0 | 0.00 | 0.00 | 0.00 | 76 | 1008.4 |
| 20260905164809 | 81 | 329 | 2.0 | 3.0 | 0.00 | 0.00 | 0.00 | 75 | 1008.1 |
| 20260905164304 | 81 | 293 | 3.0 | 3.0 | 0.00 | 0.00 | 0.00 | 75 | 1008.1 |
| 20260905163759 | 81 | 341 | 3.0 | 5.0 | 0.00 | 0.00 | 0.00 | 75 | 1008.0 |
| 20260905163256 | 81 | 260 | 2.0 | 2.0 | 0.00 | 0.00 | 0.00 | 74 | 1007.9 |
| 20260905162751 | 81 | 20 | 2.0 | 2.0 | 0.00 | 0.00 | 0.00 | 74 | 1008.0 |
| 20260905162250 | 81 | 316 | 2.0 | 3.0 | 0.00 | 0.00 | 0.00 | 74 | 1008.0 |
| 20260905161745 | 81 | 334 | 4.0 | 6.0 | 0.00 | 0.00 | 0.00 | 73 | 1008.0 |
| 20260905161244 | 82 | 264 | 3.0 | 6.0 | 0.00 | 0.00 | 0.00 | 73 | 1008.0 |
| 20260905160743 | 82 | 342 | 4.0 | 6.0 | 0.00 | 0.00 | 0.00 | 73 | 1008.1 |
| 20260905160238 | 82 | 332 | 3.0 | 3.0 | 0.00 | 0.00 | 0.00 | 72 | 1008.0 |
| 20260905155732 | 82 | 283 | 5.0 | 6.0 | 0.00 | 0.00 | 0.00 | 72 | 1008.0 |
| 20260905155230 | 82 | 291 | 5.0 | 6.0 | 0.00 | 0.00 | 0.00 | 72 | 1007.9 |
| 20260905154720 | 82 | 344 | 3.0 | 6.0 | 0.00 | 0.00 | 0.00 | 72 | 1007.9 |
| 20260905154215 | 82 | 343 | 4.0 | 7.0 | 0.00 | 0.00 | 0.00 | 71 | 1007.9 |
| 20260905153711 | 83 | 305 | 6.0 | 7.0 | 0.00 | 0.00 | 0.00 | 71 | 1008.0 |
| 20260905153207 | 83 | 337 | 7.0 | 8.0 | 0.00 | 0.00 | 0.00 | 70 | 1008.0 |
| 20260905152701 | 83 | 300 | 4.0 | 7.0 | 0.00 | 0.00 | 0.00 | 70 | 1007.7 |
| 20260905152156 | 83 | 0 | 5.0 | 7.0 | 0.00 | 0.00 | 0.00 | 70 | 1008.0 |
| 20260905151656 | 84 | 338 | 6.0 | 9.0 | 0.00 | 0.00 | 0.00 | 69 | 1007.9 |
| 20260905151151 | 84 | 14 | 3.0 | 8.0 | 0.00 | 0.00 | 0.00 | 69 | 1007.6 |
| 20260905150652 | 84 | 355 | 4.0 | 7.0 | 0.00 | 0.00 | 0.00 | 69 | 1007.9 |
| 20260905150151 | 84 | 359 | 7.0 | 8.0 | 0.00 | 0.00 | 0.00 | 68 | 1007.7 |
| 20260905145649 | 85 | 334 | 9.0 | 14.0 | 0.00 | 0.00 | 0.00 | 68 | 1007.7 |
| 20260905145149 | 84 | 337 | 5.0 | 7.0 | 0.00 | 0.00 | 0.00 | 68 | 1007.7 |
| 20260905144643 | 84 | 293 | 7.0 | 10.0 | 0.00 | 0.00 | 0.00 | 68 | 1007.7 |
| 20260905144142 | 84 | 257 | 6.0 | 9.0 | 0.00 | 0.00 | 0.00 | 68 | 1007.7 |
| 20260905143637 | 85 | 358 | 8.0 | 13.0 | 0.00 | 0.00 | 0.00 | 67 | 1007.5 |
| 20260905143137 | 85 | 335 | 9.0 | 10.0 | 0.00 | 0.00 | 0.00 | 66 | 1007.6 |
| 20260905142636 | 85 | 300 | 2.0 | 11.0 | 0.00 | 0.00 | 0.00 | 66 | 1007.4 |
| 20260905142130 | 85 | 264 | 9.0 | 10.0 | 0.00 | 0.00 | 0.00 | 66 | 1007.5 |
| 20260905141625 | 85 | 9 | 5.0 | 11.0 | 0.00 | 0.00 | 0.00 | 66 | 1007.4 |
| 20260905141121 | 86 | 342 | 5.0 | 8.0 | 0.00 | 0.00 | 0.00 | 65 | 1007.6 |
| 20260905140616 | 85 | 287 | 7.0 | 11.0 | 0.00 | 0.00 | 0.00 | 66 | 1007.3 |
| 20260905140115 | 86 | 267 | 7.0 | 10.0 | 0.00 | 0.00 | 0.00 | 65 | 1007.6 |
| 20260905135611 | 86 | 323 | 5.0 | 9.0 | 0.00 | 0.00 | 0.00 | 65 | 1007.2 |
| 20260905135106 | 86 | 324 | 9.0 | 10.0 | 0.00 | 0.00 | 0.00 | 64 | 1007.3 |
| 20260905134601 | 87 | 280 | 6.0 | 10.0 | 0.00 | 0.00 | 0.00 | 63 | 1007.2 |
| 20260905134059 | 86 | 333 | 6.0 | 10.0 | 0.00 | 0.00 | 0.00 | 64 | 1007.2 |
| 20260905133555 | 86 | 251 | 9.0 | 10.0 | 0.00 | 0.00 | 0.00 | 63 | 1007.2 |
| 20260905133054 | 86 | 247 | 9.0 | 11.0 | 0.00 | 0.00 | 0.00 | 64 | 1007.1 |
| 20260905132554 | 86 | 276 | 4.0 | 10.0 | 0.00 | 0.00 | 0.00 | 65 | 1007.2 |
| 20260905132049 | 87 | 343 | 9.0 | 15.0 | 0.00 | 0.00 | 0.00 | 63 | 1007.3 |
| 20260905131545 | 86 | 315 | 7.0 | 10.0 | 0.00 | 0.00 | 0.00 | 65 | 1007.3 |
| 20260905131040 | 86 | 336 | 7.0 | 10.0 | 0.00 | 0.00 | 0.00 | 65 | 1007.4 |
| 20260905130539 | 87 | 275 | 4.0 | 9.0 | 0.00 | 0.00 | 0.00 | 63 | 1007.3 |
| 20260905130034 | 87 | 339 | 8.0 | 10.0 | 0.00 | 0.00 | 0.00 | 63 | 1007.5 |
| 20260905125534 | 87 | 328 | 5.0 | 7.0 | 0.00 | 0.00 | 0.00 | 62 | 1007.3 |
| 20260905125029 | 86 | 346 | 5.0 | 14.0 | 0.00 | 0.00 | 0.00 | 63 | 1007.3 |
| 20260905124526 | 86 | 354 | 7.0 | 14.0 | 0.00 | 0.00 | 0.00 | 64 | 1007.3 |
| 20260905124021 | 86 | 320 | 9.0 | 11.0 | 0.00 | 0.00 | 0.00 | 64 | 1007.5 |
| 20260905123517 | 87 | 268 | 8.0 | 10.0 | 0.00 | 0.00 | 0.00 | 63 | 1007.5 |
| 20260905123013 | 86 | 355 | 7.0 | 16.0 | 0.00 | 0.00 | 0.00 | 64 | 1007.4 |
| 20260905122507 | 87 | 309 | 8.0 | 10.0 | 0.00 | 0.00 | 0.00 | 63 | 1007.5 |
| 20260905122003 | 86 | 294 | 8.0 | 15.0 | 0.00 | 0.00 | 0.00 | 62 | 1007.6 |
| 20260905121457 | 87 | 268 | 7.0 | 11.0 | 0.00 | 0.00 | 0.00 | 62 | 1007.4 |
| 20260905120956 | 87 | 274 | 10.0 | 13.0 | 0.00 | 0.00 | 0.00 | 62 | 1007.5 |
| 20260905120451 | 86 | 315 | 5.0 | 13.0 | 0.00 | 0.00 | 0.00 | 64 | 1007.5 |
| 20260905115946 | 86 | 279 | 11.0 | 13.0 | 0.00 | 0.00 | 0.00 | 62 | 1007.8 |
| 20260905115445 | 87 | 343 | 4.0 | 11.0 | 0.00 | 0.00 | 0.00 | 62 | 1007.6 |
| 20260905114940 | 86 | 263 | 5.0 | 14.0 | 0.00 | 0.00 | 0.00 | 63 | 1007.8 |
| 20260905114440 | 87 | 350 | 11.0 | 15.0 | 0.00 | 0.00 | 0.00 | 62 | 1007.7 |
| 20260905113939 | 87 | 295 | 9.0 | 11.0 | 0.00 | 0.00 | 0.00 | 60 | 1007.7 |
| 20260905113434 | 87 | 311 | 5.0 | 10.0 | 0.00 | 0.00 | 0.00 | 59 | 1007.9 |
| 20260905112929 | 87 | 267 | 11.0 | 16.0 | 0.00 | 0.00 | 0.00 | 61 | 1008.0 |
| 20260905112425 | 87 | 350 | 8.0 | 16.0 | 0.00 | 0.00 | 0.00 | 62 | 1007.9 |
| 20260905111919 | 87 | 17 | 7.0 | 14.0 | 0.00 | 0.00 | 0.00 | 61 | 1007.7 |
| 20260905111414 | 86 | 39 | 5.0 | 11.0 | 0.00 | 0.00 | 0.00 | 63 | 1007.9 |
| 20260905110908 | 87 | 292 | 7.0 | 13.0 | 0.00 | 0.00 | 0.00 | 62 | 1007.8 |
| 20260905110402 | 87 | 268 | 8.0 | 17.0 | 0.00 | 0.00 | 0.00 | 63 | 1007.7 |
| 20260905105857 | 87 | 355 | 6.0 | 11.0 | 0.00 | 0.00 | 0.00 | 63 | 1007.6 |
| 20260905105356 | 87 | 320 | 10.0 | 20.0 | 0.00 | 0.00 | 0.00 | 62 | 1007.8 |
| 20260905104850 | 88 | 346 | 9.0 | 17.0 | 0.00 | 0.00 | 0.00 | 60 | 1007.7 |
| 20260905104347 | 87 | 332 | 5.0 | 14.0 | 0.00 | 0.00 | 0.00 | 62 | 1007.7 |
| 20260905103847 | 86 | 347 | 4.0 | 15.0 | 0.00 | 0.00 | 0.00 | 63 | 1007.9 |
| 20260905103343 | 87 | 253 | 7.0 | 10.0 | 0.00 | 0.00 | 0.00 | 62 | 1007.6 |
| 20260905102838 | 88 | 242 | 9.0 | 13.0 | 0.00 | 0.00 | 0.00 | 60 | 1007.7 |
| 20260905102334 | 87 | 240 | 7.0 | 11.0 | 0.00 | 0.00 | 0.00 | 60 | 1007.6 |
| 20260905101829 | 88 | 268 | 7.0 | 9.0 | 0.00 | 0.00 | 0.00 | 59 | 1007.6 |
| 20260905101327 | 88 | 279 | 8.0 | 10.0 | 0.00 | 0.00 | 0.00 | 59 | 1007.6 |
| 20260905100821 | 88 | 279 | 6.0 | 16.0 | 0.00 | 0.00 | 0.00 | 60 | 1007.8 |
| 20260905100317 | 87 | 325 | 6.0 | 9.0 | 0.00 | 0.00 | 0.00 | 57 | 1007.7 |
| 20260905095816 | 88 | 297 | 11.0 | 14.0 | 0.00 | 0.00 | 0.00 | 58 | 1007.5 |
| 20260905095311 | 88 | 276 | 9.0 | 11.0 | 0.00 | 0.00 | 0.00 | 59 | 1007.6 |
| 20260905094806 | 89 | 308 | 6.0 | 14.0 | 0.00 | 0.00 | 0.00 | 57 | 1007.7 |
| 20260905094302 | 88 | 322 | 9.0 | 11.0 | 0.00 | 0.00 | 0.00 | 58 | 1007.4 |
| 20260905093801 | 88 | 342 | 9.0 | 15.0 | 0.00 | 0.00 | 0.00 | 58 | 1007.8 |
| 20260905093256 | 88 | 282 | 5.0 | 11.0 | 0.00 | 0.00 | 0.00 | 58 | 1007.6 |
| 20260905092751 | 88 | 356 | 5.0 | 8.0 | 0.00 | 0.00 | 0.00 | 58 | 1007.6 |
| 20260905092246 | 88 | 291 | 8.0 | 10.0 | 0.00 | 0.00 | 0.00 | 57 | 1007.6 |
| 20260905091741 | 88 | 271 | 8.0 | 11.0 | 0.00 | 0.00 | 0.00 | 55 | 1007.9 |
| 20260905091236 | 88 | 233 | 7.0 | 10.0 | 0.00 | 0.00 | 0.00 | 58 | 1007.8 |
| 20260905090735 | 87 | 280 | 0.0 | 3.0 | 0.00 | 0.00 | 0.00 | 58 | 1007.6 |
| 20260905090231 | 87 | 260 | 7.0 | 11.0 | 0.00 | 0.00 | 0.00 | 58 | 1007.9 |
| 20260905085730 | 88 | 262 | 8.0 | 9.0 | 0.00 | 0.00 | 0.00 | 57 | 1007.9 |
| 20260905085225 | 88 | 342 | 2.0 | 6.0 | 0.00 | 0.00 | 0.00 | 58 | 1007.8 |
| 20260905084725 | 87 | 307 | 1.0 | 7.0 | 0.00 | 0.00 | 0.00 | 58 | 1007.8 |
| 20260905084224 | 87 | 354 | 4.0 | 9.0 | 0.00 | 0.00 | 0.00 | 61 | 1007.8 |
| 20260905083720 | 87 | 225 | 5.0 | 9.0 | 0.00 | 0.00 | 0.00 | 59 | 1007.7 |
| 20260905083215 | 87 | 256 | 1.0 | 8.0 | 0.00 | 0.00 | 0.00 | 60 | 1007.9 |
| 20260905082711 | 87 | 175 | 5.0 | 6.0 | 0.00 | 0.00 | 0.00 | 60 | 1008.0 |
| 20260905082206 | 87 | 170 | 5.0 | 8.0 | 0.00 | 0.00 | 0.00 | 60 | 1007.7 |
| 20260905081701 | 88 | 341 | 1.0 | 2.0 | 0.00 | 0.00 | 0.00 | 56 | 1007.8 |
| 20260905081156 | 86 | 269 | 5.0 | 8.0 | 0.00 | 0.00 | 0.00 | 58 | 1008.0 |
| 20260905080655 | 86 | 157 | 1.0 | 6.0 | 0.00 | 0.00 | 0.00 | 59 | 1007.9 |
| 20260905080155 | 85 | 252 | 1.0 | 5.0 | 0.00 | 0.00 | 0.00 | 59 | 1007.9 |
| 20260905075654 | 85 | 268 | 5.0 | 9.0 | 0.00 | 0.00 | 0.00 | 62 | 1008.0 |
| 20260905075154 | 86 | 253 | 5.0 | 9.0 | 0.00 | 0.00 | 0.00 | 61 | 1007.9 |
| 20260905074652 | 85 | 208 | 4.0 | 7.0 | 0.00 | 0.00 | 0.00 | 62 | 1007.6 |
| 20260905074148 | 85 | 183 | 3.0 | 7.0 | 0.00 | 0.00 | 0.00 | 62 | 1008.2 |
| 20260905073644 | 84 | 304 | 4.0 | 7.0 | 0.00 | 0.00 | 0.00 | 64 | 1008.2 |
| 20260905073139 | 84 | 278 | 4.0 | 9.0 | 0.00 | 0.00 | 0.00 | 65 | 1007.9 |
| 20260905072639 | 84 | 135 | 1.0 | 6.0 | 0.00 | 0.00 | 0.00 | 65 | 1008.1 |
| 20260905072134 | 84 | 293 | 1.0 | 5.0 | 0.00 | 0.00 | 0.00 | 67 | 1008.0 |
| 20260905071631 | 85 | 274 | 6.0 | 8.0 | 0.00 | 0.00 | 0.00 | 65 | 1008.0 |
| 20260905071126 | 84 | 347 | 2.0 | 3.0 | 0.00 | 0.00 | 0.00 | 66 | 1008.1 |
| 20260905070621 | 83 | 302 | 2.0 | 5.0 | 0.00 | 0.00 | 0.00 | 68 | 1008.1 |
| 20260905070117 | 82 | 292 | 4.0 | 10.0 | 0.00 | 0.00 | 0.00 | 68 | 1008.2 |
| 20260905065615 | 83 | 273 | 5.0 | 8.0 | 0.00 | 0.00 | 0.00 | 68 | 1008.1 |
| 20260905065110 | 82 | 309 | 2.0 | 3.0 | 0.00 | 0.00 | 0.00 | 69 | 1008.0 |
| 20260905064605 | 82 | 303 | 6.0 | 8.0 | 0.00 | 0.00 | 0.00 | 69 | 1008.0 |
| 20260905064101 | 82 | 279 | 6.0 | 7.0 | 0.00 | 0.00 | 0.00 | 70 | 1008.0 |
| 20260905063559 | 82 | 336 | 3.0 | 6.0 | 0.00 | 0.00 | 0.00 | 71 | 1008.1 |
| 20260905063055 | 82 | 266 | 0.0 | 6.0 | 0.00 | 0.00 | 0.00 | 71 | 1007.9 |
| 20260905062550 | 82 | 233 | 4.0 | 7.0 | 0.00 | 0.00 | 0.00 | 71 | 1008.1 |
| 20260905062045 | 82 | 317 | 3.0 | 5.0 | 0.00 | 0.00 | 0.00 | 71 | 1007.9 |
| 20260905061540 | 82 | 295 | 5.0 | 7.0 | 0.00 | 0.00 | 0.00 | 71 | 1007.7 |
| 20260905061039 | 83 | 269 | 4.0 | 6.0 | 0.00 | 0.00 | 0.00 | 70 | 1007.9 |
| 20260905060535 | 82 | 300 | 0.0 | 2.0 | 0.00 | 0.00 | 0.00 | 72 | 1007.7 |
| 20260905060031 | 81 | 145 | 2.0 | 5.0 | 0.00 | 0.00 | 0.00 | 73 | 1008.0 |
| 20260905055529 | 81 | 230 | 3.0 | 7.0 | 0.00 | 0.00 | 0.00 | 73 | 1007.8 |
| 20260905055025 | 82 | 189 | 2.0 | 6.0 | 0.00 | 0.00 | 0.00 | 72 | 1007.8 |
| 20260905054520 | 81 | 217 | 4.0 | 6.0 | 0.00 | 0.00 | 0.00 | 73 | 1008.0 |
| 20260905054016 | 80 | 201 | 1.0 | 3.0 | 0.00 | 0.00 | 0.00 | 74 | 1007.8 |
| 20260905053509 | 80 | 249 | 2.0 | 7.0 | 0.00 | 0.00 | 0.00 | 75 | 1007.8 |
| 20260905053006 | 80 | 238 | 3.0 | 3.0 | 0.00 | 0.00 | 0.00 | 75 | 1007.8 |
| 20260905052505 | 80 | 241 | 2.0 | 5.0 | 0.00 | 0.00 | 0.00 | 75 | 1007.8 |
| 20260905052004 | 80 | 153 | 1.0 | 2.0 | 0.00 | 0.00 | 0.00 | 75 | 1007.5 |
| 20260905051500 | 80 | 262 | 2.0 | 2.0 | 0.00 | 0.00 | 0.00 | 75 | 1007.9 |
| 20260905050957 | 79 | 244 | 1.0 | 3.0 | 0.00 | 0.00 | 0.00 | 76 | 1007.7 |
| 20260905050453 | 79 | 74 | 1.0 | 2.0 | 0.00 | 0.00 | 0.00 | 77 | 1007.8 |
| 20260905045949 | 79 | 185 | 4.0 | 5.0 | 0.00 | 0.00 | 0.00 | 77 | 1007.8 |
| 20260905045443 | 78 | 140 | 3.0 | 5.0 | 0.00 | 0.00 | 0.00 | 78 | 1007.6 |
| 20260905044938 | 78 | 145 | 2.0 | 5.0 | 0.00 | 0.00 | 0.00 | 79 | 1007.6 |
| 20260905044432 | 77 | 202 | 2.0 | 3.0 | 0.00 | 0.00 | 0.00 | 80 | 1007.7 |
| 20260905043927 | 77 | 164 | 4.0 | 6.0 | 0.00 | 0.00 | 0.00 | 81 | 1007.5 |
| 20260905043426 | 76 | 162 | 2.0 | 5.0 | 0.00 | 0.00 | 0.00 | 82 | 1007.6 |
| 20260905042921 | 76 | 144 | 2.0 | 5.0 | 0.00 | 0.00 | 0.00 | 82 | 1007.6 |
| 20260905042416 | 76 | 195 | 4.0 | 5.0 | 0.00 | 0.00 | 0.00 | 83 | 1007.5 |
| 20260905041910 | 75 | 198 | 3.0 | 6.0 | 0.00 | 0.00 | 0.00 | 84 | 1007.4 |
| 20260905041407 | 75 | 83 | 2.0 | 2.0 | 0.00 | 0.00 | 0.00 | 85 | 1007.5 |
| 20260905040901 | 74 | 215 | 2.0 | 2.0 | 0.00 | 0.00 | 0.00 | 85 | 1007.4 |
| 20260905040400 | 74 | 22 | 0.0 | 0.0 | 0.00 | 0.00 | 0.00 | 85 | 1007.4 |
| 20260905035859 | 74 | 56 | 0.0 | 1.0 | 0.00 | 0.00 | 0.00 | 85 | 1007.4 |
| 20260905035350 | 74 | 26 | 0.0 | 0.0 | 0.00 | 0.00 | 0.00 | 85 | 1007.2 |
| 20260905034846 | 74 | 23 | 0.0 | 1.0 | 0.00 | 0.00 | 0.00 | 85 | 1007.6 |
| 20260905034342 | 74 | 47 | 0.0 | 0.0 | 0.00 | 0.00 | 0.00 | 85 | 1007.4 |
| 20260905033840 | 74 | 70 | 0.0 | 2.0 | 0.00 | 0.00 | 0.00 | 85 | 1007.3 |
| 20260905033336 | 74 | 119 | 1.0 | 3.0 | 0.00 | 0.00 | 0.00 | 84 | 1007.1 |
| 20260905032835 | 74 | 53 | 0.0 | 1.0 | 0.00 | 0.00 | 0.00 | 84 | 1007.6 |
| 20260905032331 | 74 | 41 | 0.0 | 1.0 | 0.00 | 0.00 | 0.00 | 84 | 1007.5 |
| 20260905031826 | 74 | 23 | 0.0 | 0.0 | 0.00 | 0.00 | 0.00 | 84 | 1007.4 |
| 20260905031321 | 75 | 75 | 0.0 | 1.0 | 0.00 | 0.00 | 0.00 | 84 | 1007.2 |
| 20260905030816 | 75 | 66 | 0.0 | 0.0 | 0.00 | 0.00 | 0.00 | 84 | 1007.3 |
| 20260905030312 | 75 | 84 | 1.0 | 1.0 | 0.00 | 0.00 | 0.00 | 84 | 1007.0 |
| 20260905025811 | 75 | 67 | 1.0 | 1.0 | 0.00 | 0.00 | 0.00 | 84 | 1007.3 |
| 20260905025307 | 75 | 87 | 0.0 | 2.0 | 0.00 | 0.00 | 0.00 | 84 | 1007.2 |
| 20260905024803 | 74 | 114 | 2.0 | 2.0 | 0.00 | 0.00 | 0.00 | 85 | 1007.2 |
| 20260905024258 | 74 | 68 | 0.0 | 1.0 | 0.00 | 0.00 | 0.00 | 85 | 1007.2 |
| 20260905023753 | 74 | 24 | 1.0 | 2.0 | 0.00 | 0.00 | 0.00 | 85 | 1007.0 |
| 20260905023248 | 75 | 22 | 0.0 | 1.0 | 0.00 | 0.00 | 0.00 | 85 | 1007.0 |
| 20260905022747 | 74 | 15 | 0.0 | 1.0 | 0.00 | 0.00 | 0.00 | 85 | 1007.1 |
| 20260905022243 | 74 | 72 | 1.0 | 2.0 | 0.00 | 0.00 | 0.00 | 85 | 1007.0 |
| 20260905021742 | 74 | 52 | 0.0 | 2.0 | 0.00 | 0.00 | 0.00 | 85 | 1006.8 |
| 20260905021237 | 74 | 131 | 2.0 | 2.0 | 0.00 | 0.00 | 0.00 | 85 | 1007.0 |
| 20260905020732 | 74 | 72 | 1.0 | 1.0 | 0.00 | 0.00 | 0.00 | 85 | 1007.0 |
| 20260905020227 | 74 | 79 | 1.0 | 2.0 | 0.00 | 0.00 | 0.00 | 86 | 1006.9 |
| 20260905015726 | 74 | 84 | 3.0 | 3.0 | 0.00 | 0.00 | 0.00 | 86 | 1006.8 |
| 20260905015221 | 74 | 40 | 0.0 | 1.0 | 0.00 | 0.00 | 0.00 | 85 | 1007.0 |
| 20260905014720 | 74 | 34 | 0.0 | 0.0 | 0.00 | 0.00 | 0.00 | 85 | 1006.9 |
| 20260905014216 | 74 | 31 | 0.0 | 1.0 | 0.00 | 0.00 | 0.00 | 85 | 1006.8 |
| 20260905013711 | 74 | 38 | 0.0 | 1.0 | 0.00 | 0.00 | 0.00 | 85 | 1006.7 |
| 20260905013207 | 74 | 4 | 2.0 | 2.0 | 0.00 | 0.00 | 0.00 | 85 | 1006.6 |